User: anonymous   Login
Location: Unspecified
(0.0000°N, 0.0000°E)
Time: 03:03:13
(UTC+00:00)
Language:

USA 252 - Orbit

View from above orbital plane
View from above orbital plane
View from above satellite
View from above satellite

Ground track
Ground track

The orbit data is extracted from the following two-line orbital elements,

1 39751U 14027A   18067.65370590 0.00000000  00000-0  00000-0 0    09
2 39751   2.6036 211.4297 0004230 123.7638 236.3049  1.00270000    06
Epoch (UTC): 08 March 2018 15:41:20
Eccentricity: 0.0004230
inclination: 2.6036°
perigee height: 35769 km
apogee height: 35804 km
right ascension of ascending node: 211.4297°
argument of perigee: 123.7638°
revolutions per day: 1.00270000
mean anomaly at epoch: 236.3049°
orbit number at epoch: 0

The dashed part of the orbit path shows where the satellite is in the earth's shadow,  

DLR